Regional Weather Roundup
Issued by NWS San Angelo, TX

Home | Current Version | Previous Version | Text Only | Print | Product List | Glossary On
Versions: 1 2 3 4 5 6 7 8 9 10 11 12 13 14 15 16 17 18 19 20 21 22 23 24 25 26 27 28 29 30 31 32 33 34 35 36 37 38 39 40 41 42 43 44 45 46 47 48 49 50
000
ASUS44 KSJT 240910
RWRSJT
WEST CENTRAL TEXAS REGIONAL WEATHER ROUNDUP
NATIONAL WEATHER SERVICE SAN ANGELO TX
400 AM CDT FRI OCT 24 2014

NOTE: "FAIR" INDICATES FEW OR NO CLOUDS BELOW 12,000 FEET WITH NO
SIGNIFICANT WEATHER AND/OR OBSTRUCTIONS TO VISIBILITY.

TXZ049-054-064>066-071>073-076>078-098-099-113-114-127-128-139-140-
154-155-168>170-241000
...LOCATIONS ACROSS WEST CENTRAL TEXAS...

CITY           SKY/WX    TMP DP  RH WIND       PRES   REMARKS
SAN ANGELO     CLEAR     58  56  93 CALM      30.13S
ABILENE        CLEAR     63  59  87 S3        30.11S
DYESS AFB      CLEAR     64  59  82 S2        30.10S
JUNCTION       CLEAR     56  54  93 CALM      30.15R
SWEETWATER     CLEAR     62  60  95 SW10      30.15F
BROWNWOOD      CLOUDY    63  59  88 MISG      30.12F
COLEMAN        SUNNY     61  59  91 S3        30.12F
SONORA         CLEAR     52  52 100 CALM      30.19S FOG
OZONA          FOG       52  52 100 CALM      30.18S VSB 1/4
BRADY          CLEAR     61  59  94 S5        30.12F
$$

TEXAS PANHANDLE/OKLAHOMA PANHANDLE

CITY           SKY/WX    TMP DP  RH WIND       PRES   REMARKS
AMARILLO       CLEAR     53  51  93 SW6       30.13S
BORGER         CLEAR     58  55  90 S5        30.10F
CANADIAN       CLEAR     58  57  97 CALM      30.08S FOG
DALHART        CLEAR     52  45  77 NW9       30.15S
DUMAS          SUNNY     50  49  95 W7        30.12S
GUYMON         NOT AVBL
HEREFORD       SUNNY     50  47  88 S6        30.15F
PAMPA          SUNNY     56  55  97 S7        30.12S FOG
PERRYTON       CLEAR     55  53  95 S5        30.09F
$$

SOUTHERN PANHANDLE/SOUTH PLAINS/ROLLING PLAINS

CITY           SKY/WX    TMP DP  RH WIND       PRES   REMARKS
LUBBOCK        FOG       54  53  97 W7        30.13F VSB 1/4
SNYDER         CLEAR     58  58  98 S6        30.14S FOG
CHILDRESS      CLEAR     61  60  97 SW5       30.09F FOG
SEMINOLE       SUNNY     56  55  97 W7        30.16S
$$

PERMIAN BASIN

CITY           SKY/WX    TMP DP  RH WIND       PRES   REMARKS
MIDLAND        CLEAR     60  57  89 S7        30.14S
ODESSA         CLEAR     62  59  90 S7        30.15F FOG
WINK           CLEAR     61  32  33 SE7       30.12S
$$

FAR WEST/SOUTHWEST MOUNTAINS/TRANS PECOS

CITY           SKY/WX    TMP DP  RH WIND       PRES   REMARKS
ALPINE         SUNNY     57  54  91 SW8       30.28S
DRYDEN           N/A     63  61  93 N6        30.13S
EL PASO        CLEAR     62  53  72 CALM      30.19R
FORT STOCKTON  CLEAR     59  56  89 S5        30.15S
GUADALUPE PASS CLEAR     59  49  69 S9        30.28S
MARFA          CLEAR     50  48  93 NW8       30.27F
PECOS          SUNNY     56  55  94 CALM      30.12S
$$

DALLAS/FORT WORTH METROPLEX

CITY           SKY/WX    TMP DP  RH WIND       PRES   REMARKS
DFW AIRPORT    PTCLDY    61  55  81 S5        30.10F
FTW MEACHAM    CLEAR     63  55  75 S7        30.10S
DAL-EXECUTIVE  CLOUDY    65  55  70 S5        30.10F
GRAND PRAIRIE  PTCLDY    64  57  79 S5        30.12S
ADDISON        CLEAR     64  58  83 S5        30.12F
MESQUITE       SUNNY     57  55  93 CALM      30.12S
LANCASTER      CLOUDY    59  55  84 CALM      30.12S
$$

NORTH CENTRAL TEXAS

CITY           SKY/WX    TMP DP  RH WIND       PRES   REMARKS
SHRMAN/DENISON SUNNY     60  56  88 E5        30.13S
GAINESVILLE    CLEAR     59  55  88 S5        30.12F
BRIDGEPORT     SUNNY     56  56 100 CALM      30.12S
DENTON         CLEAR     60  56  86 SE3       30.11S
WAXAHACHIE     MOSUNNY   59  56  88 CALM      30.13S
GRANBURY       SUNNY     64  57  80 SE5       30.12S
$$

WESTERN NORTH TEXAS

CITY           SKY/WX    TMP DP  RH WIND       PRES   REMARKS
WICHITA FALLS  CLEAR     62  57  83 S8        30.07F
VERNON         SUNNY     61  57  88 CALM      30.08F
BRECKENRIDGE   SUNNY     65  59  80 S7        30.09F HAZE
COMANCHE       CLEAR     61  59  92 S6        30.12S
$$

CENTRAL AND SOUTH CENTRAL TEXAS

CITY           SKY/WX    TMP DP  RH WIND       PRES   REMARKS
AUSTIN/BERGSTM CLEAR     57  55  93 CALM      30.12S
WACO           MOCLDY    65  55  70 S8        30.12S
HILLSBORO      MOSUNNY   63  53  72 S6        30.12F
TEMPLE         PTCLDY    61  52  72 S6        30.12S
KILLEEN-GRAY   CLEAR     60  55  85 S7        30.13S
FORT HOOD      CLEAR     64  56  75 S3        30.12F
GEORGETOWN     CLEAR     59  54  82 CALM      30.13S
LAGO VISTA     FAIR      66  56  70 S3        30.14S
SAN MARCOS     CLEAR     59  52  77 NW6       30.13F
NEW BRAUNFELS  CLEAR     62  58  86 NW3       30.11S
RANDOLPH AFB   CLEAR     60  56  84 N5        30.13S
SAN ANTONIO    CLEAR     64  58  80 W3        30.13S
STINSON        CLEAR     62  56  80 CALM      30.11S
PLEASANTON     NOT AVBL
LA GRANGE      CLEAR     59  56  91 CALM      30.10F
GIDDINGS       MOSUNNY   58  54  84 CALM      30.16S
$$

EAST TEXAS

CITY           SKY/WX    TMP DP  RH WIND       PRES   REMARKS
PARIS          CLEAR     54  45  71 E5        30.14F
CLARKSVILLE    NOT AVBL
TYLER          CLEAR     57  52  83 E3        30.13S
LONGVIEW       CLEAR     53  50  89 CALM      30.13F
PALESTINE      SUNNY     56  54  91 SE3       30.14S
NACOGDOCHES    CLEAR     48  45  87 CALM      30.14F
$$

TEXAS HILL COUNTRY AND EDWARDS PLATEAU

CITY           SKY/WX    TMP DP  RH WIND       PRES   REMARKS
LLANO          NOT AVBL
HORSESHOE BAY  FAIR      59  57  92 CALM      30.13S
KERRVILLE      CLEAR     56  55  94 CALM      30.15F
FREDERICKSBRG  CLEAR     56  55  94 CALM      30.14F
ROCKSPRINGS    SUNNY     61  57  88 SE3       30.17F
HONDO          CLEAR     58  57  97 NE6       30.15S
UVALDE         SUNNY     60  58  92 NE6       30.12F
DEL RIO        CLEAR     64  61  90 E6        30.09F
$$

SOUTHEAST TEXAS

CITY           SKY/WX    TMP DP  RH WIND       PRES   REMARKS
COLLEGE STN    MOCLDY    61  54  77 E5        30.12F
CALDWELL       CLOUDY    59  55  88 CALM      30.16S
CROCKETT       SUNNY     54  54 100 CALM      30.16S
BRENHAM        CLEAR     60  56  87 CALM      30.14R
HUNTSVILLE     CLEAR     54  51  90 CALM      30.12F
CONROE         CLEAR     53  51  93 CALM      30.13S
HOUSTON BUSH   CLEAR     56  54  93 NE3       30.12S
HOUSTON HOBBY  CLEAR     60  55  83 NE3       30.11F
PERLAND        CLEAR     60  55  83 NE6       30.12F
WHARTON        SUNNY     56  53  89 CALM      30.12S
$$

THE UPPER TEXAS COAST

CITY           SKY/WX    TMP DP  RH WIND       PRES   REMARKS
ORANGE         SUNNY    N/A N/A N/A CALM      30.13S
PORT ARTHUR    CLEAR     53  51  93 N6        30.11S
GALVESTON      CLEAR     64  60  87 NE8       30.11S
ANGLETON       CLEAR     55  55 100 N6        30.11R
BAY CITY         N/A     60  58  94 NE3       30.10S
$$

TEXAS COASTAL BEND, RIO GRANDE PLAINS DEEP SOUTH TEXAS

CITY           SKY/WX    TMP DP  RH WIND       PRES   REMARKS
VICTORIA       CLEAR     58  54  86 N5        30.11S
BEEVILLE       FAIR      62  61  94 CALM      30.10S
ROCKPORT       CLEAR     67  65  93 CALM      30.09S
PORT ARANSAS   SUNNY     71  64  78 CALM      30.08S
PORT LAVACA    SUNNY     62  58  87 N5        30.10S
CORPUS CHRISTI PTCLDY    65  63  93 NW6       30.08F
KINGSVILLE NAS CLEAR     62  62 100 N6        30.09S
COTULLA        CLEAR     66  59  78 SE3       30.10F
LAREDO         CLEAR     67  62  84 CALM      30.12F
BROWNSVILLE    CLEAR     67  65  93 NW6       30.06S
PORT ISABEL    CLEAR     70  66  87 NW5       30.05F
HEBBRONVILLE   SUNNY     62  59  89 CALM      30.11S
MCALLEN        CLEAR     66  64  93 CALM      30.08F
WESLACO        CLEAR     65  63  92 CALM      30.07S FOG
FALFURRIAS     SUNNY     63  61  95 CALM      30.08F
EDINBURG       SUNNY     65  63  91 CALM      30.08S FOG
$$



USA.gov is the U.S. government's official web portal to all federal, state and local government web resources and services.